Location: Unspecified
(0.0000°N, 0.0000°E)
Time: 22:18:49
(UTC+00:00)

Amateur Radio Satellites - All Passes

Search period start: 22 September 2014 21:48
Search period end: 23 September 2014 21:48
Location: Unspecified, 0.0000°N, 0.0000°E

Satellite Date Start Highest point End Downlink Frequencies (MHz)
Time Altitude Azimuth
ZACube-1 22 Sep 21:54:07 21:58:22 70° 78° (ENE) 22:02:42 437.345 MHz
PCSat 22 Sep 21:57:22 22:02:32 48° 251° (WSW) 22:07:44 145.825 MHz
UOSAT-12 22 Sep 21:58:36 22:02:12 24° 293° (WNW) 22:05:52 437.025 FM, 437.400 FM
HO-68 22 Sep 22:14:22 22:17:50 14° 254° (WSW) 22:21:18 435.675 MHz FM
ISS 22 Sep 22:25:44 22:28:58 49° 305° (NW) 22:32:11 145.800 FM
FUNcube-1 22 Sep 22:48:23 22:51:29 20° 259° (WSW) 22:54:38 145.950 - 145.970 MHz USB
Oscar 10/S400 22 Sep 22:50:04 00:33:41 15° 114° (ESE) 01:47:19 145.825 - 145.975 CW/USB, Beacon 145.810 USB
Oscar 19 23 Sep 00:42:10 00:46:46 34° 103° (ESE) 00:51:21 437.125 CW, 437.150 USB
RS-15 23 Sep 00:57:43 01:08:24 43° 112° (ESE) 01:18:35 29.354 - 29.394 USB, Beacon 29.352 USB
AO-Echo 23 Sep 01:07:18 01:11:41 29° 103° (ESE) 01:16:11 ?
AO-27 23 Sep 01:09:06 01:13:18 25° 103° (ESE) 01:17:31 436.795 MHz FM
Oscar 16 23 Sep 01:21:02 01:26:08 74° 282° (WNW) 01:31:15 437.025 USB, Beacon 2401.1428
JAS-1B 23 Sep 01:23:45 01:29:28 50° 105° (ESE) 01:36:05 435.800 - 435.900 CW/SSB
ITAMSAT 1 23 Sep 02:11:32 02:16:38 57° 283° (WNW) 02:21:46 435.822 SSB
Uribyol 2 23 Sep 02:14:58 02:19:58 47° 283° (WNW) 02:24:58 436.500 FM
Gurwin Techsat 1B 23 Sep 02:19:51 02:25:07 70° 102° (ESE) 02:30:24 435.225 FM
Oscar 19 23 Sep 02:23:16 02:25:49 14° 283° (WNW) 02:28:23 437.125 CW, 437.150 USB
Saudisat 1A 23 Sep 02:32:12 02:36:24 46° 248° (WSW) 02:40:37 436.775 MHz
AO-Echo 23 Sep 02:46:57 02:50:12 17° 282° (WNW) 02:53:30 ?
AO-27 23 Sep 02:48:45 02:52:32 21° 283° (WNW) 02:56:20 436.795 MHz FM
TMSAT-1 23 Sep 02:54:38 02:59:52 67° 282° (WNW) 03:05:09 436.925 FM
RS-15 23 Sep 03:10:33 03:20:17 33° 291° (WNW) 03:29:47 29.354 - 29.394 USB, Beacon 29.352 USB
JAS-1B 23 Sep 03:18:11 03:20:10 12° 280° (W) 03:22:12 435.800 - 435.900 CW/SSB
AO-7 23 Sep 03:44:43 03:52:55 66° 106° (ESE) 04:01:09 29.400 - 29.500 MHz
KITSAT 1 23 Sep 03:52:58 03:59:48 31° 70° (ENE) 04:06:36 435.175 FM
OPAL 23 Sep 03:56:08 04:00:47 35° 76° (ENE) 04:05:28 ?
Uosat F 23 Sep 03:58:29 04:03:30 79° 103° (ESE) 04:08:33 435.120 FM
MaSat-1 23 Sep 04:50:18 04:53:08 16° 105° (ESE) 04:56:04 437.345 MHz
JAS-2 23 Sep 05:20:09 05:27:14 74° 103° (ESE) 05:34:59 435.800 - 435.900 CW/SSB, 435.910 FM
PANSAT 23 Sep 05:24:31 05:27:00 16° 29° (NNE) 05:29:28 not established
OPAL 23 Sep 05:36:49 05:39:23 14° 256° (WSW) 05:41:58 ?
AO-7 23 Sep 05:41:01 05:45:16 15° 287° (WNW) 05:49:33 29.400 - 29.500 MHz
KITSAT 1 23 Sep 05:47:49 05:54:50 34° 250° (WSW) 06:01:55 435.175 FM
Hamsat 23 Sep 06:00:27 06:04:13 34° 281° (WNW) 06:08:01 145.90 MHz
STRAND 1 23 Sep 06:21:19 06:26:23 70° 77° (ENE) 06:31:26 ?
MaSat-1 23 Sep 06:25:35 06:29:31 27° 288° (WNW) 06:33:39 437.345 MHz
SO-67 23 Sep 06:36:04 06:39:26 56° 101° (E) 06:42:50 435.3500 MHz FM
PANSAT 23 Sep 07:03:19 07:07:08 72° 210° (SSW) 07:10:59 not established
JAS-2 23 Sep 07:09:52 07:12:07 12° 282° (WNW) 07:14:26 435.800 - 435.900 CW/SSB, 435.910 FM
SO-50 23 Sep 07:10:26 07:15:17 69° 68° (ENE) 07:20:06 436.795 FM
HO-68 23 Sep 08:15:09 08:22:00 49° 105° (ESE) 08:28:53 435.675 MHz FM
Sapphire 23 Sep 08:26:05 08:29:08 15° 110° (ESE) 08:32:10 437.095 MHz 1200 baud AX-25 AFSK
UOSAT-12 23 Sep 08:28:53 08:32:47 27° 68° (ENE) 08:36:37 437.025 FM, 437.400 FM
PANSAT 23 Sep 08:46:04 08:47:22 11° 207° (SSW) 08:48:40 not established
PCSat 23 Sep 08:50:53 08:55:44 34° 109° (ESE) 09:00:34 145.825 MHz
Oscar 11 23 Sep 09:21:45 09:26:03 80° 102° (ESE) 09:30:22 145.825 FM, Beacon 2401.500 USB
FUNcube-1 23 Sep 09:22:42 09:26:19 24° 101° (ESE) 09:29:52 145.950 - 145.970 MHz USB
UKube-1 23 Sep 09:42:37 09:46:32 34° 282° (WNW) 09:50:29 145.840 MHz, 145.915 MHz
ISS 23 Sep 10:01:11 10:04:29 82° 235° (SW) 10:07:49 145.800 FM
HO-68 23 Sep 10:04:53 10:09:22 18° 285° (WNW) 10:13:52 435.675 MHz FM
ZACube-1 23 Sep 10:05:00 10:09:30 80° 282° (WNW) 10:13:54 437.345 MHz
Sapphire 23 Sep 10:07:27 10:12:17 34° 289° (WNW) 10:17:08 437.095 MHz 1200 baud AX-25 AFSK
UOSAT-12 23 Sep 10:10:18 10:12:39 14° 248° (WSW) 10:14:59 437.025 FM, 437.400 FM
PCSat 23 Sep 10:35:47 10:38:53 15° 290° (WNW) 10:41:59 145.825 MHz
FUNcube-1 23 Sep 11:00:00 11:02:25 15° 282° (WNW) 11:04:50 145.950 - 145.970 MHz USB
Oscar 16 23 Sep 12:17:36 12:20:59 18° 77° (ENE) 12:24:21 437.025 USB, Beacon 2401.1428
RS-15 23 Sep 12:39:10 12:49:19 36° 69° (ENE) 12:59:47 29.354 - 29.394 USB, Beacon 29.352 USB
Saudisat 1A 23 Sep 13:01:35 13:03:12 12° 113° (ESE) 13:04:50 436.775 MHz
ITAMSAT 1 23 Sep 13:08:32 13:12:35 24° 77° (ENE) 13:16:37 435.822 SSB
Uribyol 2 23 Sep 13:11:24 13:15:45 28° 77° (ENE) 13:20:05 436.500 FM
Oscar 19 23 Sep 13:15:23 13:20:35 90° 255° (WSW) 13:25:47 437.125 CW, 437.150 USB
Gurwin Techsat 1B 23 Sep 13:21:51 13:24:04 13° 77° (ENE) 13:26:17 435.225 FM
JAS-1B 23 Sep 13:32:14 13:41:53 73° 77° (ENE) 13:50:13 435.800 - 435.900 CW/SSB
AO-Echo 23 Sep 13:36:33 13:41:25 67° 78° (ENE) 13:46:07 ?
AO-27 23 Sep 13:43:30 13:48:38 67° 77° (ENE) 13:53:45 436.795 MHz FM
TMSAT-1 23 Sep 13:54:25 13:58:28 22° 77° (ENE) 14:02:29 436.925 FM
Oscar 16 23 Sep 13:55:40 14:00:03 28° 257° (WSW) 14:04:27 437.025 USB, Beacon 2401.1428
AO-7 23 Sep 14:24:46 14:27:08 11° 73° (ENE) 14:29:28 29.400 - 29.500 MHz
Saudisat 1A 23 Sep 14:38:43 14:42:32 29° 292° (WNW) 14:46:21 436.775 MHz
ITAMSAT 1 23 Sep 14:48:00 14:51:49 21° 257° (WSW) 14:55:37 435.822 SSB
RS-15 23 Sep 14:50:37 15:01:17 43° 248° (WSW) 15:12:27 29.354 - 29.394 USB, Beacon 29.352 USB
Uribyol 2 23 Sep 14:51:35 14:54:57 18° 257° (WSW) 14:58:19 436.500 FM
Uosat F 23 Sep 14:54:36 14:54:51 10° 77° (ENE) 14:55:05 435.120 FM
Gurwin Techsat 1B 23 Sep 14:58:49 15:03:45 40° 257° (WSW) 15:08:40 435.225 FM
Oscar 10/S400 23 Sep 15:18:26 15:39:55 52° 337° (NNW) 16:03:19 145.825 - 145.975 CW/USB, Beacon 145.810 USB
JAS-1B 23 Sep 15:26:13 15:31:28 16° 252° (WSW) 15:36:27 435.800 - 435.900 CW/SSB
TMSAT-1 23 Sep 15:34:00 15:38:06 23° 257° (WSW) 15:42:12 436.925 FM
KITSAT 1 23 Sep 16:00:26 16:07:52 40° 110° (ESE) 16:15:15 435.175 FM
AO-7 23 Sep 16:11:06 16:19:27 80° 254° (WSW) 16:27:45 29.400 - 29.500 MHz
OPAL 23 Sep 16:27:37 16:32:40 87° 104° (ESE) 16:37:39 ?
Uosat F 23 Sep 16:28:37 16:33:21 43° 257° (WSW) 16:38:04 435.120 FM
Hamsat 23 Sep 16:34:15 16:35:49 12° 78° (ENE) 16:37:22 145.90 MHz
JAS-2 23 Sep 16:56:15 17:01:22 34° 79° (E) 17:06:06 435.800 - 435.900 CW/SSB, 435.910 FM
PANSAT 23 Sep 17:11:49 17:14:26 17° 152° (SSE) 17:17:04 not established
STRAND 1 23 Sep 17:19:40 17:20:11 10° 103° (ESE) 17:20:42 ?
KITSAT 1 23 Sep 17:56:33 18:02:55 26° 291° (WNW) 18:09:19 435.175 FM
Hamsat 23 Sep 18:07:45 18:11:29 28° 258° (WSW) 18:15:14 145.90 MHz
MaSat-1 23 Sep 18:17:27 18:18:46 13° 255° (WSW) 18:20:02 437.345 MHz
SO-67 23 Sep 18:20:59 18:24:01 29° 79° (E) 18:27:03 435.3500 MHz FM
JAS-2 23 Sep 18:43:00 18:46:06 15° 255° (WSW) 18:49:04 435.800 - 435.900 CW/SSB, 435.910 FM
PANSAT 23 Sep 18:50:45 18:54:36 68° 330° (NNW) 18:58:25 not established
STRAND 1 23 Sep 18:54:10 18:59:04 46° 283° (WNW) 19:03:59 ?
SO-50 23 Sep 19:24:13 19:28:34 61° 292° (WNW) 19:32:55 436.795 FM
HO-68 23 Sep 20:07:03 20:13:40 41° 75° (ENE) 20:20:13 435.675 MHz FM
UKube-1 23 Sep 20:18:18 20:20:26 13° 78° (ENE) 20:22:33 145.840 MHz, 145.915 MHz
PANSAT 23 Sep 20:33:51 20:34:49 11° 333° (NNW) 20:35:47 not established
UOSAT-12 23 Sep 20:38:29 20:42:46 47° 112° (ESE) 20:47:08 437.025 FM, 437.400 FM
Sapphire 23 Sep 21:00:20 21:05:31 48° 71° (ENE) 21:10:41 437.095 MHz 1200 baud AX-25 AFSK
PCSat 23 Sep 21:26:38 21:32:01 76° 251° (WSW) 21:37:24 145.825 MHz
Oscar 11 23 Sep 21:30:56 21:35:17 75° 258° (WSW) 21:39:37 145.825 FM, Beacon 2401.500 USB
FUNcube-1 23 Sep 21:32:54 21:36:46 33° 78° (ENE) 21:40:41 145.950 - 145.970 MHz USB
ISS 23 Sep 21:36:50 21:40:08 59° 125° (SE) 21:43:24 145.800 FM
